{"data":{"norad_id":36745,"intl_designator":"2010-032B","name":"ARABSAT-5A","alt_names":[],"object_type":"PAYLOAD","status":"ACTIVE","operator":null,"country":"AB","launch_date":"2010-06-26","launch_site_code":"FRGUI","launch_vehicle":null,"mission":null,"orbit_class":"UNKNOWN","rcs_meters":11.1427,"size_class":null,"mass_kg":null,"dimensions":null,"purposes":["comms"],"wikipedia_slug":null,"has_3d_model":false,"image_url":null,"decayed_at":null,"tle_current":{"epoch":"2026-09-20T03:22:49.774368Z","epoch_age_seconds":49108,"freshness":"FRESH","line1":"1 36745U 10032B   26263.14085387  .00000149  00000+0  00000+0 0  9998","line2":"2 36745   0.2767  77.2019 0004018  98.8649 264.1784  1.00273203 59590","mean_motion":1.00273203,"eccentricity":0.0004018,"inclination_deg":0.2767,"raan_deg":77.2019,"arg_perigee_deg":98.8649,"mean_anomaly_deg":264.1784,"bstar":0,"rev_number":5959,"period_min":1436.0765956584,"perigee_km":35769.255819419,"apogee_km":35803.139078582,"semimajor_km":42164.334449,"source":"CELESTRAK","updated_at":"2026-09-20T09:00:35.164043Z"}}}